Time,TemperatureF,DewpointF,PressureIn,WindDirection,WindDirectionDegrees,WindSpeedMPH,WindSpeedGustMPH,Humidity,HourlyPrecipIn,Conditions,Clouds,dailyrainin,SoftwareType,DateUTC
2013-04-10 00:00:00,46.0,44.6,29.95,SSE,150,0.0,1.2,95,0.07,RA,,0.00,WeatherDisplay:10.37,2013-04-10 04:00:00,
2013-04-10 00:05:00,46.1,44.7,29.95,WNW,290,0.0,1.2,95,0.05,RA,,0.00,WeatherDisplay:10.37,2013-04-10 04:05:00,
2013-04-10 00:10:00,45.7,44.1,29.96,NNW,335,2.4,4.0,94,0.02,,,0.00,WeatherDisplay:10.37,2013-04-10 04:10:00,
2013-04-10 00:15:00,44.9,43.0,29.96,NNW,343,2.2,5.0,93,0.02,RA,,0.01,WeatherDisplay:10.37,2013-04-10 04:15:00,
2013-04-10 00:20:00,44.0,42.1,29.96,NNE,32,1.6,6.0,93,0.01,RA,,0.01,WeatherDisplay:10.37,2013-04-10 04:20:00,
2013-04-10 00:25:00,43.5,41.9,29.95,NW,315,0.8,6.0,94,0.02,RA,,0.02,WeatherDisplay:10.37,2013-04-10 04:25:00,
2013-04-10 00:30:00,43.4,41.8,29.96,NE,36,1.0,6.0,94,0.02,RA,,0.02,WeatherDisplay:10.37,2013-04-10 04:30:00,
2013-04-10 00:35:00,43.5,42.2,29.96,ENE,65,0.7,6.0,95,0.02,,,0.02,WeatherDisplay:10.37,2013-04-10 04:35:00,
2013-04-10 00:40:00,43.5,42.2,29.96,NE,40,1.3,6.0,95,0.02,,,0.02,WeatherDisplay:10.37,2013-04-10 04:40:00,
2013-04-10 00:45:00,43.6,42.3,29.96,NNE,12,0.9,6.0,95,0.02,,,0.02,WeatherDisplay:10.37,2013-04-10 04:45:00,
2013-04-10 00:50:00,43.7,42.4,29.96,NE,56,2.3,6.0,95,0.02,,,0.02,WeatherDisplay:10.37,2013-04-10 04:50:00,
2013-04-10 00:55:00,43.8,42.5,29.97,North,359,1.6,6.0,95,0.02,,,0.02,WeatherDisplay:10.37,2013-04-10 04:55:00,
2013-04-10 01:00:00,43.9,42.6,29.96,NE,41,2.5,6.0,95,0.02,,,0.02,WeatherDisplay:10.37,2013-04-10 05:00:00,
2013-04-10 01:05:00,43.9,42.6,29.97,ENE,65,0.0,6.0,95,0.02,,,0.02,WeatherDisplay:10.37,2013-04-10 05:05:00,
2013-04-10 01:10:00,44.0,42.7,29.97,ENE,57,3.1,7.0,95,0.02,,,0.03,WeatherDisplay:10.37,2013-04-10 05:10:00,
2013-04-10 01:15:00,44.0,42.7,29.97,NE,37,0.4,7.0,95,0.02,RA,,0.03,WeatherDisplay:10.37,2013-04-10 05:15:00,
2013-04-10 01:20:00,44.1,42.8,29.96,NE,34,2.2,7.0,95,0.03,RA,,0.04,WeatherDisplay:10.37,2013-04-10 05:20:00,
2013-04-10 01:25:00,44.2,42.9,29.96,ENE,68,1.7,7.0,95,0.02,RA,,0.04,WeatherDisplay:10.37,2013-04-10 05:25:00,
2013-04-10 01:30:00,44.2,42.9,29.96,East,81,1.5,7.0,95,0.03,RA,,0.05,WeatherDisplay:10.37,2013-04-10 05:30:00,
2013-04-10 01:35:00,44.3,43.2,29.95,ENE,63,2.8,7.0,96,0.03,RA,,0.05,WeatherDisplay:10.37,2013-04-10 05:35:00,
2013-04-10 01:40:00,44.3,43.2,29.95,East,82,2.6,7.0,96,0.03,,,0.05,WeatherDisplay:10.37,2013-04-10 05:40:00,
2013-04-10 01:45:00,44.3,43.0,29.96,ENE,68,1.5,7.0,95,0.03,,,0.05,WeatherDisplay:10.37,2013-04-10 05:45:00,
2013-04-10 01:50:00,44.3,43.2,29.96,NNE,15,1.6,7.0,96,0.03,,,0.05,WeatherDisplay:10.37,2013-04-10 05:50:00,
2013-04-10 01:55:00,44.3,43.0,29.96,NE,55,1.1,7.0,95,0.04,RA,,0.06,WeatherDisplay:10.37,2013-04-10 05:55:00,
2013-04-10 02:00:00,44.3,43.2,29.97,North,354,0.5,7.0,96,0.04,RA,,0.06,WeatherDisplay:10.37,2013-04-10 06:00:00,
2013-04-10 02:05:00,44.4,43.3,29.97,ENE,75,1.1,7.0,96,0.04,,,0.06,WeatherDisplay:10.37,2013-04-10 06:05:00,
2013-04-10 02:10:00,44.4,43.3,29.96,East,99,1.1,7.0,96,0.05,RA,,0.07,WeatherDisplay:10.37,2013-04-10 06:10:00,
2013-04-10 02:15:00,44.3,43.2,29.96,ENE,57,3.3,7.0,96,0.04,RA,,0.07,WeatherDisplay:10.37,2013-04-10 06:15:00,
2013-04-10 02:20:00,44.3,43.2,29.96,ENE,68,0.3,7.0,96,0.03,,,0.07,WeatherDisplay:10.37,2013-04-10 06:20:00,
2013-04-10 02:25:00,44.4,43.3,29.96,ENE,60,1.2,7.0,96,0.03,,,0.07,WeatherDisplay:10.37,2013-04-10 06:25:00,
2013-04-10 02:30:00,44.4,43.3,29.95,ENE,65,0.1,7.0,96,0.02,,,0.07,WeatherDisplay:10.37,2013-04-10 06:30:00,
2013-04-10 02:35:00,44.4,43.3,29.95,North,349,1.9,7.0,96,0.02,,,0.07,WeatherDisplay:10.37,2013-04-10 06:35:00,
2013-04-10 02:40:00,44.5,43.4,29.95,NNE,29,0.0,7.0,96,0.02,,,0.07,WeatherDisplay:10.37,2013-04-10 06:40:00,
2013-04-10 02:45:00,44.5,43.4,29.95,NE,40,0.0,7.0,96,0.02,,,0.07,WeatherDisplay:10.37,2013-04-10 06:45:00,
2013-04-10 02:50:00,44.6,43.5,29.95,NE,51,0.4,7.0,96,0.02,,,0.07,WeatherDisplay:10.37,2013-04-10 06:50:00,
2013-04-10 02:55:00,44.6,43.5,29.96,North,1,0.0,7.0,96,0.01,,,0.07,WeatherDisplay:10.37,2013-04-10 06:55:00,
2013-04-10 03:00:00,44.5,43.4,29.96,ENE,62,1.8,7.0,96,0.01,,,0.07,WeatherDisplay:10.37,2013-04-10 07:00:00,
2013-04-10 03:05:00,44.4,43.3,29.96,ENE,68,0.5,7.0,96,0.01,,,0.07,WeatherDisplay:10.37,2013-04-10 07:05:00,
2013-04-10 03:10:00,44.4,43.3,29.97,NNE,15,0.2,7.0,96,0.00,,,0.07,WeatherDisplay:10.37,2013-04-10 07:10:00,
2013-04-10 03:15:00,44.3,43.2,29.96,East,100,1.1,7.0,96,0.00,,,0.07,WeatherDisplay:10.37,2013-04-10 07:15:00,
2013-04-10 03:20:00,44.3,43.2,29.96,ENE,58,0.0,7.0,96,0.01,RA,,0.08,WeatherDisplay:10.37,2013-04-10 07:20:00,
2013-04-10 03:25:00,44.3,43.2,29.97,East,79,0.0,7.0,96,0.01,RA,,0.08,WeatherDisplay:10.37,2013-04-10 07:25:00,
2013-04-10 03:30:00,44.3,43.2,29.97,NNE,32,0.0,7.0,96,0.01,,,0.08,WeatherDisplay:10.37,2013-04-10 07:30:00,
2013-04-10 03:35:00,44.2,43.1,29.97,ENE,61,0.0,7.0,96,0.01,,,0.08,WeatherDisplay:10.37,2013-04-10 07:35:00,
2013-04-10 03:40:00,44.1,43.0,29.96,ENE,58,1.3,7.0,96,0.01,,,0.08,WeatherDisplay:10.37,2013-04-10 07:40:00,
2013-04-10 03:45:00,44.2,43.1,29.97,North,357,0.2,7.0,96,0.01,,,0.08,WeatherDisplay:10.37,2013-04-10 07:45:00,
2013-04-10 03:50:00,44.2,43.1,29.97,NE,44,1.0,7.0,96,0.01,,,0.08,WeatherDisplay:10.37,2013-04-10 07:50:00,
2013-04-10 03:55:00,44.1,43.0,29.96,ENE,72,1.6,7.0,96,0.01,,,0.08,WeatherDisplay:10.37,2013-04-10 07:55:00,
2013-04-10 04:00:00,44.0,42.9,29.97,NNE,20,1.2,7.0,96,0.01,,,0.08,WeatherDisplay:10.37,2013-04-10 08:00:00,
2013-04-10 04:05:00,43.8,42.7,29.96,ENE,57,1.3,7.0,96,0.01,,,0.08,WeatherDisplay:10.37,2013-04-10 08:05:00,
2013-04-10 04:10:00,43.8,42.7,29.97,ENE,59,0.0,7.0,96,0.01,,,0.08,WeatherDisplay:10.37,2013-04-10 08:10:00,
2013-04-10 04:15:00,43.8,42.7,29.97,ESE,103,1.0,7.0,96,0.02,RA,,0.09,WeatherDisplay:10.37,2013-04-10 08:15:00,
2013-04-10 04:20:00,43.8,42.7,29.98,NE,47,0.0,7.0,96,0.01,RA,,0.09,WeatherDisplay:10.37,2013-04-10 08:20:00,
2013-04-10 04:25:00,43.8,42.7,29.97,ENE,78,0.0,7.0,96,0.01,,,0.09,WeatherDisplay:10.37,2013-04-10 08:25:00,
2013-04-10 04:30:00,43.8,42.7,29.97,ENE,57,0.0,7.0,96,0.01,,,0.09,WeatherDisplay:10.37,2013-04-10 08:30:00,
2013-04-10 04:35:00,43.9,42.8,29.97,ENE,60,0.0,7.0,96,0.01,,,0.09,WeatherDisplay:10.37,2013-04-10 08:35:00,
2013-04-10 04:40:00,43.9,42.8,29.97,ENE,72,0.9,7.0,96,0.01,,,0.09,WeatherDisplay:10.37,2013-04-10 08:40:00,
2013-04-10 04:45:00,44.0,42.9,29.98,WNW,301,0.0,7.0,96,0.01,,,0.09,WeatherDisplay:10.37,2013-04-10 08:45:00,
2013-04-10 04:50:00,44.0,42.9,29.99,WNW,302,0.0,7.0,96,0.01,,,0.09,WeatherDisplay:10.37,2013-04-10 08:50:00,
2013-04-10 04:55:00,44.0,42.9,30.00,WNW,301,0.0,7.0,96,0.01,,,0.09,WeatherDisplay:10.37,2013-04-10 08:55:00,
2013-04-10 05:00:00,44.0,42.9,29.99,ENE,71,0.0,7.0,96,0.01,,,0.09,WeatherDisplay:10.37,2013-04-10 09:00:00,
2013-04-10 05:05:00,44.0,42.9,29.99,NNE,29,0.0,7.0,96,0.01,,,0.09,WeatherDisplay:10.37,2013-04-10 09:05:00,
2013-04-10 05:10:00,43.9,42.8,29.99,NNE,30,0.0,7.0,96,0.01,,,0.09,WeatherDisplay:10.37,2013-04-10 09:10:00,
2013-04-10 05:15:00,43.9,42.8,29.99,North,358,0.0,7.0,96,0.00,,,0.09,WeatherDisplay:10.37,2013-04-10 09:15:00,
2013-04-10 05:20:00,43.8,42.7,29.99,NE,40,1.3,7.0,96,0.00,,,0.09,WeatherDisplay:10.37,2013-04-10 09:20:00,
2013-04-10 05:25:00,43.5,42.2,29.99,NNE,25,2.0,7.0,95,0.00,,,0.09,WeatherDisplay:10.37,2013-04-10 09:25:00,
2013-04-10 05:30:00,42.9,41.6,29.99,NW,308,0.4,7.0,95,0.00,,,0.09,WeatherDisplay:10.37,2013-04-10 09:30:00,
2013-04-10 05:35:00,42.3,41.0,29.99,NNE,20,0.6,7.0,95,0.00,,,0.09,WeatherDisplay:10.37,2013-04-10 09:35:00,
2013-04-10 05:40:00,41.9,40.6,29.98,ENE,58,1.2,7.0,95,0.00,,,0.09,WeatherDisplay:10.37,2013-04-10 09:40:00,
2013-04-10 05:45:00,41.7,40.4,29.99,NNW,344,1.0,7.0,95,0.00,,,0.09,WeatherDisplay:10.37,2013-04-10 09:45:00,
2013-04-10 05:50:00,41.6,40.3,30.00,NW,318,0.0,7.0,95,0.00,,,0.09,WeatherDisplay:10.37,2013-04-10 09:50:00,
2013-04-10 05:55:00,41.5,40.2,30.00,NNW,340,0.2,7.0,95,0.00,,,0.09,WeatherDisplay:10.37,2013-04-10 09:55:00,
2013-04-10 06:00:00,41.5,40.4,30.00,ENE,68,0.5,7.0,96,0.00,,,0.09,WeatherDisplay:10.37,2013-04-10 10:00:00,
2013-04-10 06:05:00,41.5,40.4,29.99,NE,39,1.1,7.0,96,0.00,,,0.09,WeatherDisplay:10.37,2013-04-10 10:05:00,
2013-04-10 06:10:00,41.4,40.3,29.99,ENE,60,0.5,7.0,96,0.00,,,0.09,WeatherDisplay:10.37,2013-04-10 10:10:00,
2013-04-10 06:15:00,41.5,40.4,29.99,NNE,12,0.0,7.0,96,0.00,,,0.09,WeatherDisplay:10.37,2013-04-10 10:15:00,
2013-04-10 06:20:00,41.5,40.4,29.99,NNW,335,0.5,7.0,96,0.00,,,0.09,WeatherDisplay:10.37,2013-04-10 10:20:00,
2013-04-10 06:25:00,41.5,40.4,29.99,NNE,23,0.0,7.0,96,0.00,,,0.09,WeatherDisplay:10.37,2013-04-10 10:25:00,
2013-04-10 06:30:00,41.6,40.5,29.99,NE,39,0.2,7.0,96,0.00,,,0.09,WeatherDisplay:10.37,2013-04-10 10:30:00,
2013-04-10 06:35:00,41.6,40.5,29.99,ENE,70,1.9,7.0,96,0.00,,,0.09,WeatherDisplay:10.37,2013-04-10 10:35:00,
2013-04-10 06:40:00,41.6,40.5,30.00,East,81,0.0,7.0,96,0.00,,,0.09,WeatherDisplay:10.37,2013-04-10 10:40:00,
2013-04-10 06:45:00,41.6,40.5,30.00,ENE,72,0.9,7.0,96,0.00,,,0.09,WeatherDisplay:10.37,2013-04-10 10:45:00,
2013-04-10 06:50:00,41.7,40.6,30.00,ENE,63,0.7,7.0,96,0.00,,,0.09,WeatherDisplay:10.37,2013-04-10 10:50:00,
2013-04-10 06:55:00,41.8,40.7,30.00,ENE,61,1.0,7.0,96,0.00,,,0.09,WeatherDisplay:10.37,2013-04-10 10:55:00,
2013-04-10 07:00:00,41.9,40.8,30.00,ENE,65,0.2,7.0,96,0.00,,,0.09,WeatherDisplay:10.37,2013-04-10 11:00:00,
2013-04-10 07:05:00,42.0,40.9,30.00,ENE,65,0.0,7.0,96,0.00,,,0.09,WeatherDisplay:10.37,2013-04-10 11:05:00,
2013-04-10 07:10:00,42.2,41.1,30.00,East,97,0.2,7.0,96,0.00,,,0.09,WeatherDisplay:10.37,2013-04-10 11:10:00,
2013-04-10 07:15:00,42.4,41.3,30.01,ENE,65,0.7,7.0,96,0.00,,,0.09,WeatherDisplay:10.37,2013-04-10 11:15:00,
2013-04-10 07:20:00,42.5,41.4,30.01,ENE,61,1.7,7.0,96,0.00,,,0.09,WeatherDisplay:10.37,2013-04-10 11:20:00,
2013-04-10 07:25:00,42.6,41.5,30.01,ENE,65,1.5,7.0,96,0.00,,,0.09,WeatherDisplay:10.37,2013-04-10 11:25:00,
2013-04-10 07:30:00,42.8,41.7,30.00,ENE,78,1.4,7.0,96,0.00,,,0.09,WeatherDisplay:10.37,2013-04-10 11:30:00,
2013-04-10 07:35:00,42.8,41.7,30.01,NE,44,0.0,7.0,96,0.00,,,0.09,WeatherDisplay:10.37,2013-04-10 11:35:00,
2013-04-10 07:40:00,43.0,41.9,30.01,NE,50,0.1,7.0,96,0.00,,,0.09,WeatherDisplay:10.37,2013-04-10 11:40:00,
2013-04-10 07:45:00,43.0,41.9,30.01,ENE,68,0.0,7.0,96,0.00,,,0.09,WeatherDisplay:10.37,2013-04-10 11:45:00,
2013-04-10 07:50:00,42.9,41.8,30.01,NE,51,1.2,7.0,96,0.00,,,0.09,WeatherDisplay:10.37,2013-04-10 11:50:00,
2013-04-10 07:55:00,42.9,41.8,30.01,ENE,63,0.2,7.0,96,0.00,,,0.09,WeatherDisplay:10.37,2013-04-10 11:55:00,
2013-04-10 08:00:00,43.1,42.0,30.01,ENE,68,2.2,7.0,96,0.00,,,0.09,WeatherDisplay:10.37,2013-04-10 12:00:00,
2013-04-10 08:05:00,43.1,42.0,30.01,East,84,1.3,7.0,96,0.00,,,0.09,WeatherDisplay:10.37,2013-04-10 12:05:00,
2013-04-10 08:10:00,43.2,42.1,30.02,East,83,1.6,7.0,96,0.00,,,0.09,WeatherDisplay:10.37,2013-04-10 12:10:00,
2013-04-10 08:15:00,43.3,42.2,30.02,ENE,64,2.2,7.0,96,0.00,,,0.09,WeatherDisplay:10.37,2013-04-10 12:15:00,
2013-04-10 08:20:00,43.3,42.2,30.02,NE,46,3.1,7.0,96,0.00,,,0.09,WeatherDisplay:10.37,2013-04-10 12:20:00,
2013-04-10 08:25:00,43.5,42.2,30.02,ENE,71,0.6,7.0,95,0.00,,,0.09,WeatherDisplay:10.37,2013-04-10 12:25:00,
2013-04-10 08:30:00,43.4,42.1,30.02,ENE,65,2.6,7.0,95,0.00,,,0.09,WeatherDisplay:10.37,2013-04-10 12:30:00,
2013-04-10 08:35:00,43.4,42.1,30.02,ENE,75,1.9,7.0,95,0.00,,,0.09,WeatherDisplay:10.37,2013-04-10 12:35:00,
2013-04-10 08:40:00,43.6,42.3,30.02,ENE,68,0.6,7.0,95,0.00,,,0.09,WeatherDisplay:10.37,2013-04-10 12:40:00,
2013-04-10 08:45:00,43.6,42.0,30.02,ENE,57,1.1,7.0,94,0.00,,,0.09,WeatherDisplay:10.37,2013-04-10 12:45:00,
2013-04-10 08:50:00,43.7,42.1,30.02,ENE,72,1.3,7.0,94,0.00,,,0.09,WeatherDisplay:10.37,2013-04-10 12:50:00,
2013-04-10 08:55:00,43.7,42.1,30.02,ENE,68,1.2,7.0,94,0.00,,,0.09,WeatherDisplay:10.37,2013-04-10 12:55:00,
2013-04-10 09:00:00,43.9,42.3,30.02,NE,41,0.1,7.0,94,0.00,,,0.09,WeatherDisplay:10.37,2013-04-10 13:00:00,
2013-04-10 09:05:00,44.0,42.4,30.02,NNE,15,0.0,7.0,94,0.00,,,0.09,WeatherDisplay:10.37,2013-04-10 13:05:00,
2013-04-10 09:10:00,44.1,42.5,30.02,ENE,63,1.7,7.0,94,0.00,,,0.09,WeatherDisplay:10.37,2013-04-10 13:10:00,
2013-04-10 09:15:00,44.0,42.1,30.03,NE,39,0.0,7.0,93,0.00,,,0.09,WeatherDisplay:10.37,2013-04-10 13:15:00,
2013-04-10 09:20:00,44.1,42.5,30.02,North,8,1.0,7.0,94,0.00,,,0.09,WeatherDisplay:10.37,2013-04-10 13:20:00,
2013-04-10 09:25:00,44.1,42.2,30.02,NE,43,0.9,7.0,93,0.00,,,0.09,WeatherDisplay:10.37,2013-04-10 13:25:00,
2013-04-10 09:30:00,43.9,42.0,30.03,NNW,346,0.5,7.0,93,0.00,,,0.09,WeatherDisplay:10.37,2013-04-10 13:30:00,
2013-04-10 09:35:00,43.7,41.8,30.03,ENE,60,2.7,7.0,93,0.00,,,0.09,WeatherDisplay:10.37,2013-04-10 13:35:00,
2013-04-10 09:40:00,43.5,41.6,30.02,NE,44,1.5,7.0,93,0.00,,,0.09,WeatherDisplay:10.37,2013-04-10 13:40:00,
2013-04-10 09:45:00,43.3,41.4,30.02,NNE,19,3.7,9.0,93,0.00,,,0.09,WeatherDisplay:10.37,2013-04-10 13:45:00,
2013-04-10 09:51:00,43.2,41.3,30.01,ENE,60,2.3,9.2,93,0.00,,,0.09,WeatherDisplay:10.37,2013-04-10 13:51:00,
2013-04-10 09:56:00,43.2,41.3,30.01,ENE,58,3.3,9.2,93,0.00,,,0.09,WeatherDisplay:10.37,2013-04-10 13:56:00,
2013-04-10 10:01:00,43.1,41.2,30.01,East,79,3.2,9.2,93,0.00,,,0.09,WeatherDisplay:10.37,2013-04-10 14:01:00,
2013-04-10 10:06:00,43.0,41.1,30.01,NE,44,2.2,9.2,93,0.00,,,0.09,WeatherDisplay:10.37,2013-04-10 14:06:00,
2013-04-10 10:11:00,42.9,40.7,30.01,ENE,78,4.6,9.2,92,0.00,,,0.09,WeatherDisplay:10.37,2013-04-10 14:11:00,
2013-04-10 10:21:00,42.8,40.6,30.01,NE,43,3.2,9.2,92,0.00,,,0.09,WeatherDisplay:10.37,2013-04-10 14:21:00,
2013-04-10 10:26:00,42.6,40.4,30.01,East,84,5.1,9.2,92,0.00,,,0.09,WeatherDisplay:10.37,2013-04-10 14:26:00,
2013-04-10 10:31:00,42.6,40.4,30.01,ENE,78,5.2,9.2,92,0.00,,,0.09,WeatherDisplay:10.37,2013-04-10 14:31:00,
2013-04-10 10:36:00,42.7,40.5,30.03,NNE,27,2.0,9.2,92,0.00,,,0.09,WeatherDisplay:10.37,2013-04-10 14:36:00,
2013-04-10 10:41:00,42.7,40.3,30.04,ENE,65,0.7,9.2,91,0.00,,,0.09,WeatherDisplay:10.37,2013-04-10 14:41:00,
2013-04-10 10:46:00,42.6,40.2,30.04,ENE,57,1.6,9.2,91,0.00,,,0.09,WeatherDisplay:10.37,2013-04-10 14:46:00,
2013-04-10 10:51:00,42.6,40.2,30.04,NE,50,1.4,9.2,91,0.00,,,0.09,WeatherDisplay:10.37,2013-04-10 14:51:00,
2013-04-10 10:57:00,42.5,40.1,30.03,ENE,64,3.6,9.2,91,0.00,,,0.09,WeatherDisplay:10.37,2013-04-10 14:57:00,
2013-04-10 11:02:00,42.5,40.1,30.01,ENE,69,2.3,9.2,91,0.00,,,0.09,WeatherDisplay:10.37,2013-04-10 15:02:00,
2013-04-10 11:07:00,42.4,39.7,30.02,East,82,0.0,9.2,90,0.00,,,0.09,WeatherDisplay:10.37,2013-04-10 15:07:00,
2013-04-10 11:12:00,42.4,39.7,30.07,West,276,1.7,9.2,90,0.00,,,0.09,WeatherDisplay:10.37,2013-04-10 15:12:00,
2013-04-10 11:17:00,42.5,39.5,30.07,NE,50,1.6,9.2,89,0.01,RA,,0.10,WeatherDisplay:10.37,2013-04-10 15:17:00,
2013-04-10 11:22:00,42.3,39.9,30.06,NW,325,0.8,9.2,91,0.05,RA,,0.15,WeatherDisplay:10.37,2013-04-10 15:22:00,
2013-04-10 11:27:00,42.0,39.8,30.04,ENE,60,2.5,9.2,92,0.08,RA,,0.17,WeatherDisplay:10.37,2013-04-10 15:27:00,
2013-04-10 11:32:00,41.7,39.5,30.03,NNE,33,2.1,9.2,92,0.10,RA,,0.20,WeatherDisplay:10.37,2013-04-10 15:32:00,
2013-04-10 11:37:00,41.5,39.6,30.03,NNE,30,2.0,9.2,93,0.13,RA,,0.22,WeatherDisplay:10.37,2013-04-10 15:37:00,
2013-04-10 11:42:00,41.3,39.4,30.02,ENE,57,3.6,9.2,93,0.14,RA,,0.23,WeatherDisplay:10.37,2013-04-10 15:42:00,
2013-04-10 11:47:00,41.1,39.2,30.03,NNW,343,1.8,9.2,93,0.15,RA,,0.24,WeatherDisplay:10.37,2013-04-10 15:47:00,
2013-04-10 11:52:00,40.8,38.9,30.04,NE,50,2.1,9.2,93,0.16,RA,,0.25,WeatherDisplay:10.37,2013-04-10 15:52:00,
2013-04-10 11:57:00,40.5,38.6,30.04,ENE,59,2.0,9.2,93,0.17,RA,,0.26,WeatherDisplay:10.37,2013-04-10 15:57:00,
2013-04-10 12:02:00,40.2,38.3,30.05,NNE,23,2.6,9.2,93,0.18,RA,,0.27,WeatherDisplay:10.37,2013-04-10 16:02:00,
2013-04-10 12:07:00,40.2,38.6,30.03,NE,52,2.4,9.2,94,0.18,RA,,0.27,WeatherDisplay:10.37,2013-04-10 16:07:00,
2013-04-10 12:12:00,40.3,38.7,30.00,ESE,107,5.1,9.2,94,0.19,RA,,0.28,WeatherDisplay:10.37,2013-04-10 16:12:00,
2013-04-10 12:17:00,40.3,38.7,29.99,ENE,65,6.3,10.4,94,0.18,RA,,0.28,WeatherDisplay:10.37,2013-04-10 16:17:00,
2013-04-10 12:22:00,40.3,38.7,29.97,ESE,121,6.4,11.5,94,0.14,,,0.28,WeatherDisplay:10.37,2013-04-10 16:22:00,
2013-04-10 12:27:00,40.4,38.8,30.01,East,100,3.8,11.5,94,0.11,,,0.28,WeatherDisplay:10.37,2013-04-10 16:27:00,
2013-04-10 12:32:00,40.7,39.1,29.98,NNE,32,4.8,11.5,94,0.09,,,0.28,WeatherDisplay:10.37,2013-04-10 16:32:00,
2013-04-10 12:37:00,40.9,39.0,29.97,ENE,68,7.0,11.5,93,0.06,,,0.28,WeatherDisplay:10.37,2013-04-10 16:37:00,
2013-04-10 12:42:00,41.2,39.6,29.97,East,94,2.9,11.5,94,0.05,,,0.28,WeatherDisplay:10.37,2013-04-10 16:42:00,
2013-04-10 12:47:00,41.2,39.3,29.98,ENE,61,6.3,11.5,93,0.04,,,0.28,WeatherDisplay:10.37,2013-04-10 16:47:00,
2013-04-10 12:52:00,41.3,39.4,29.97,ENE,72,1.7,11.5,93,0.03,,,0.28,WeatherDisplay:10.37,2013-04-10 16:52:00,
2013-04-10 12:57:00,41.5,39.6,29.97,North,349,1.0,11.5,93,0.02,,,0.28,WeatherDisplay:10.37,2013-04-10 16:57:00,
2013-04-10 13:02:00,41.7,39.8,29.98,NNE,33,0.8,11.5,93,0.01,,,0.28,WeatherDisplay:10.37,2013-04-10 17:02:00,
2013-04-10 13:07:00,41.8,39.9,30.00,North,351,1.4,11.5,93,0.01,,,0.28,WeatherDisplay:10.37,2013-04-10 17:07:00,
2013-04-10 13:12:00,42.0,40.1,30.00,NE,40,0.5,11.5,93,0.00,,,0.28,WeatherDisplay:10.37,2013-04-10 17:12:00,
2013-04-10 13:17:00,42.0,40.1,29.99,NNE,32,1.3,11.5,93,0.00,,,0.28,WeatherDisplay:10.37,2013-04-10 17:17:00,
2013-04-10 13:22:00,42.0,39.8,29.99,ENE,65,1.7,11.5,92,0.00,,,0.28,WeatherDisplay:10.37,2013-04-10 17:22:00,
2013-04-10 13:27:00,42.0,39.8,29.99,ENE,65,2.2,11.5,92,0.00,,,0.28,WeatherDisplay:10.37,2013-04-10 17:27:00,
2013-04-10 13:32:00,41.9,39.7,29.98,ENE,69,3.4,11.5,92,0.00,,,0.28,WeatherDisplay:10.37,2013-04-10 17:32:00,
2013-04-10 13:37:00,41.8,39.6,29.97,NE,39,2.1,11.5,92,0.00,,,0.28,WeatherDisplay:10.37,2013-04-10 17:37:00,
2013-04-10 13:42:00,41.6,39.4,29.96,ENE,73,4.8,11.5,92,0.00,,,0.28,WeatherDisplay:10.37,2013-04-10 17:42:00,
2013-04-10 13:47:00,41.6,39.4,29.95,ENE,61,4.7,11.5,92,0.00,,,0.28,WeatherDisplay:10.37,2013-04-10 17:47:00,
2013-04-10 13:52:00,41.5,39.3,29.95,ENE,68,5.2,11.5,92,0.00,,,0.28,WeatherDisplay:10.37,2013-04-10 17:52:00,
2013-04-10 13:57:00,41.5,39.6,29.96,ENE,68,2.4,11.5,93,0.00,,,0.28,WeatherDisplay:10.37,2013-04-10 17:57:00,
2013-04-10 14:02:00,41.4,39.5,29.96,ENE,65,4.2,11.5,93,0.00,,,0.28,WeatherDisplay:10.37,2013-04-10 18:02:00,
2013-04-10 14:07:00,41.2,39.1,29.96,ENE,72,3.7,11.5,92,0.00,,,0.28,WeatherDisplay:10.37,2013-04-10 18:07:00,
2013-04-10 14:12:00,41.2,39.3,29.96,NE,37,3.6,11.5,93,0.00,,,0.28,WeatherDisplay:10.37,2013-04-10 18:12:00,
2013-04-10 14:17:00,41.2,39.3,29.97,ENE,65,3.2,11.5,93,0.00,,,0.28,WeatherDisplay:10.37,2013-04-10 18:17:00,
2013-04-10 14:22:00,41.1,39.2,29.97,ENE,68,2.4,11.5,93,0.00,,,0.28,WeatherDisplay:10.37,2013-04-10 18:22:00,
2013-04-10 14:27:00,41.1,39.2,29.96,ENE,68,1.5,11.5,93,0.00,,,0.28,WeatherDisplay:10.37,2013-04-10 18:27:00,
2013-04-10 14:32:00,41.1,39.2,29.96,ENE,58,2.7,11.5,93,0.00,,,0.28,WeatherDisplay:10.37,2013-04-10 18:32:00,
2013-04-10 14:37:00,40.9,38.8,29.96,ENE,74,4.2,11.5,92,0.00,,,0.28,WeatherDisplay:10.37,2013-04-10 18:37:00,
2013-04-10 14:42:00,40.7,38.8,29.96,ENE,60,4.8,11.5,93,0.00,,,0.28,WeatherDisplay:10.37,2013-04-10 18:42:00,
2013-04-10 14:47:00,40.7,38.8,29.95,East,89,2.6,11.5,93,0.00,,,0.28,WeatherDisplay:10.37,2013-04-10 18:47:00,
2013-04-10 14:52:00,40.6,38.7,29.95,NE,53,2.2,11.5,93,0.00,,,0.28,WeatherDisplay:10.37,2013-04-10 18:52:00,
2013-04-10 14:57:00,40.6,38.7,29.95,NNE,26,2.4,11.5,93,0.01,RA,,0.30,WeatherDisplay:10.37,2013-04-10 18:57:00,
2013-04-10 15:02:00,40.4,38.8,29.95,NE,40,1.8,11.5,94,0.02,RA,,0.30,WeatherDisplay:10.37,2013-04-10 19:02:00,
2013-04-10 15:07:00,40.5,38.9,29.95,NE,37,2.8,11.5,94,0.05,RA,,0.33,WeatherDisplay:10.37,2013-04-10 19:07:00,
2013-04-10 15:12:00,40.2,38.6,29.96,ENE,65,1.8,11.5,94,0.07,RA,,0.35,WeatherDisplay:10.37,2013-04-10 19:12:00,
2013-04-10 15:17:00,40.1,38.5,29.94,ENE,62,4.0,11.5,94,0.07,RA,,0.35,WeatherDisplay:10.37,2013-04-10 19:17:00,
2013-04-10 15:22:00,39.9,38.3,29.93,East,84,4.9,11.5,94,0.07,,,0.35,WeatherDisplay:10.37,2013-04-10 19:22:00,
2013-04-10 15:27:00,39.7,38.1,29.92,East,93,1.3,11.5,94,0.07,,,0.35,WeatherDisplay:10.37,2013-04-10 19:27:00,
2013-04-10 15:32:00,39.6,38.0,29.92,ENE,68,3.6,11.5,94,0.08,RA,,0.36,WeatherDisplay:10.37,2013-04-10 19:32:00,
2013-04-10 15:37:00,39.5,37.9,29.92,NE,47,2.2,11.5,94,0.08,RA,,0.36,WeatherDisplay:10.37,2013-04-10 19:37:00,
2013-04-10 15:42:00,39.5,37.9,29.94,East,81,2.2,11.5,94,0.08,,,0.36,WeatherDisplay:10.37,2013-04-10 19:42:00,
2013-04-10 15:47:00,39.5,38.2,29.90,East,83,5.6,11.5,95,0.10,RA,,0.40,WeatherDisplay:10.37,2013-04-10 19:47:00,
2013-04-10 15:53:00,39.4,38.1,29.91,East,81,3.3,11.5,95,0.14,RA,,0.43,WeatherDisplay:10.37,2013-04-10 19:53:00,
2013-04-10 15:58:00,39.4,38.1,29.92,NE,44,2.5,11.5,95,0.15,RA,,0.44,WeatherDisplay:10.37,2013-04-10 19:58:00,
2013-04-10 16:03:00,39.5,38.2,29.90,NNE,18,4.4,11.5,95,0.14,RA,,0.44,WeatherDisplay:10.37,2013-04-10 20:03:00,
2013-04-10 16:08:00,39.5,38.2,29.90,ENE,57,1.7,11.5,95,0.11,,,0.44,WeatherDisplay:10.37,2013-04-10 20:08:00,
2013-04-10 16:13:00,39.5,38.2,29.91,NNE,29,4.7,11.5,95,0.09,,,0.44,WeatherDisplay:10.37,2013-04-10 20:13:00,
2013-04-10 16:18:00,39.7,38.4,30.02,WNW,284,6.3,11.5,95,0.09,,,0.44,WeatherDisplay:10.37,2013-04-10 20:18:00,
2013-04-10 16:23:00,39.7,38.4,30.02,NE,50,3.0,12.0,95,0.10,RA,,0.49,WeatherDisplay:10.37,2013-04-10 20:23:00,
2013-04-10 16:28:00,39.1,37.5,29.95,ENE,65,4.2,12.0,94,0.22,RA,,0.57,WeatherDisplay:10.37,2013-04-10 20:28:00,
2013-04-10 16:33:00,38.6,37.0,29.93,North,4,4.9,12.0,94,0.22,RA,,0.58,WeatherDisplay:10.37,2013-04-10 20:33:00,
2013-04-10 16:38:00,38.5,37.2,29.92,NE,47,5.2,12.0,95,0.23,RA,,0.59,WeatherDisplay:10.37,2013-04-10 20:38:00,
2013-04-10 16:43:00,38.6,37.3,29.89,ENE,71,7.2,12.0,95,0.24,RA,,0.60,WeatherDisplay:10.37,2013-04-10 20:43:00,
2013-04-10 16:48:00,38.7,37.4,29.89,ENE,57,8.2,13.0,95,0.20,RA,,0.60,WeatherDisplay:10.37,2013-04-10 20:48:00,
2013-04-10 16:53:00,38.8,37.5,29.90,ENE,65,2.4,13.0,95,0.19,RA,,0.61,WeatherDisplay:10.37,2013-04-10 20:53:00,
2013-04-10 16:58:00,38.9,37.9,29.90,NE,53,5.0,13.0,96,0.17,RA,,0.61,WeatherDisplay:10.37,2013-04-10 20:58:00,
2013-04-10 17:03:00,39.0,38.0,29.90,ENE,71,3.9,13.0,96,0.17,,,0.61,WeatherDisplay:10.37,2013-04-10 21:03:00,
2013-04-10 17:08:00,39.3,38.3,29.91,ENE,68,4.1,13.0,96,0.17,,,0.61,WeatherDisplay:10.37,2013-04-10 21:08:00,
2013-04-10 17:13:00,39.6,38.6,29.93,ENE,65,2.8,13.0,96,0.17,,,0.61,WeatherDisplay:10.37,2013-04-10 21:13:00,
2013-04-10 17:18:00,39.7,38.7,29.93,NE,37,2.4,13.0,96,0.17,,,0.61,WeatherDisplay:10.37,2013-04-10 21:18:00,
2013-04-10 17:23:00,39.8,38.8,29.92,ESE,110,3.0,13.0,96,0.10,,,0.61,WeatherDisplay:10.37,2013-04-10 21:23:00,
2013-04-10 17:28:00,39.9,38.9,29.92,NW,322,2.9,13.0,96,0.04,,,0.61,WeatherDisplay:10.37,2013-04-10 21:28:00,
2013-04-10 17:33:00,39.9,38.9,29.92,North,11,2.9,13.0,96,0.03,,,0.61,WeatherDisplay:10.37,2013-04-10 21:33:00,
2013-04-10 17:38:00,39.9,38.9,29.92,ENE,78,3.7,13.0,96,0.02,,,0.61,WeatherDisplay:10.37,2013-04-10 21:38:00,
2013-04-10 17:43:00,40.0,39.0,29.93,NNW,342,3.8,13.0,96,0.01,,,0.61,WeatherDisplay:10.37,2013-04-10 21:43:00,
2013-04-10 17:48:00,40.0,39.0,29.94,ENE,63,5.0,13.0,96,0.01,,,0.61,WeatherDisplay:10.37,2013-04-10 21:48:00,
2013-04-10 17:53:00,40.0,38.7,29.93,ENE,75,4.0,13.0,95,0.00,,,0.61,WeatherDisplay:10.37,2013-04-10 21:53:00,
2013-04-10 17:58:00,40.1,38.8,29.93,NW,304,3.1,13.0,95,0.00,,,0.61,WeatherDisplay:10.37,2013-04-10 21:58:00,
2013-04-10 18:03:00,40.2,38.9,29.93,NE,47,4.4,13.0,95,0.00,,,0.61,WeatherDisplay:10.37,2013-04-10 22:03:00,
2013-04-10 18:08:00,40.2,38.9,29.92,ENE,72,3.2,13.0,95,0.00,,,0.61,WeatherDisplay:10.37,2013-04-10 22:08:00,
2013-04-10 18:13:00,40.3,39.0,29.93,NNE,32,2.2,13.0,95,0.00,,,0.61,WeatherDisplay:10.37,2013-04-10 22:13:00,
2013-04-10 18:18:00,40.4,39.1,29.94,NE,53,2.5,13.0,95,0.00,,,0.61,WeatherDisplay:10.37,2013-04-10 22:18:00,
2013-04-10 18:23:00,40.4,39.1,29.95,NE,37,0.7,13.0,95,0.00,,,0.61,WeatherDisplay:10.37,2013-04-10 22:23:00,
2013-04-10 18:28:00,40.4,39.1,29.94,ENE,72,1.8,13.0,95,0.00,,,0.61,WeatherDisplay:10.37,2013-04-10 22:28:00,
2013-04-10 18:33:00,40.4,38.8,29.94,ENE,72,1.7,13.0,94,0.00,,,0.61,WeatherDisplay:10.37,2013-04-10 22:33:00,
2013-04-10 18:38:00,40.4,38.8,29.96,NE,40,1.9,13.0,94,0.00,,,0.61,WeatherDisplay:10.37,2013-04-10 22:38:00,
2013-04-10 18:43:00,40.4,38.8,29.97,North,9,0.0,13.0,94,0.00,,,0.61,WeatherDisplay:10.37,2013-04-10 22:43:00,
2013-04-10 18:48:00,40.4,38.8,29.97,NE,39,0.6,13.0,94,0.00,,,0.61,WeatherDisplay:10.37,2013-04-10 22:48:00,
2013-04-10 18:53:00,40.3,38.7,29.98,NNW,329,0.8,13.0,94,0.00,,,0.61,WeatherDisplay:10.37,2013-04-10 22:53:00,
2013-04-10 18:58:00,40.3,38.7,29.97,NNE,18,0.4,13.0,94,0.00,,,0.61,WeatherDisplay:10.37,2013-04-10 22:58:00,
2013-04-10 19:03:00,40.2,38.6,29.98,ENE,71,1.5,13.0,94,0.00,,,0.61,WeatherDisplay:10.37,2013-04-10 23:03:00,
2013-04-10 19:08:00,40.1,38.5,29.98,East,89,0.7,13.0,94,0.00,,,0.61,WeatherDisplay:10.37,2013-04-10 23:08:00,
2013-04-10 19:13:00,40.0,38.4,29.98,NNE,13,2.2,13.0,94,0.01,RA,,0.62,WeatherDisplay:10.37,2013-04-10 23:13:00,
2013-04-10 19:18:00,39.9,38.3,29.98,NNE,30,1.8,13.0,94,0.01,RA,,0.62,WeatherDisplay:10.37,2013-04-10 23:18:00,
2013-04-10 19:23:00,39.7,38.1,29.97,NE,36,2.9,13.0,94,0.01,,,0.62,WeatherDisplay:10.37,2013-04-10 23:23:00,
2013-04-10 19:28:00,39.7,38.4,29.96,North,1,0.9,13.0,95,0.01,,,0.62,WeatherDisplay:10.37,2013-04-10 23:28:00,
2013-04-10 19:33:00,39.5,38.2,29.95,NE,53,0.5,13.0,95,0.01,,,0.62,WeatherDisplay:10.37,2013-04-10 23:33:00,
2013-04-10 19:38:00,39.4,38.1,29.95,NE,50,2.3,13.0,95,0.02,RA,,0.63,WeatherDisplay:10.37,2013-04-10 23:38:00,
2013-04-10 19:43:00,39.4,38.1,29.95,NW,305,2.0,13.0,95,0.02,RA,,0.63,WeatherDisplay:10.37,2013-04-10 23:43:00,
2013-04-10 19:48:00,39.3,38.0,29.95,ENE,57,1.8,13.0,95,0.02,,,0.63,WeatherDisplay:10.37,2013-04-10 23:48:00,
2013-04-10 19:53:00,39.2,37.9,29.95,NNW,345,3.1,13.0,95,0.02,,,0.63,WeatherDisplay:10.37,2013-04-10 23:53:00,
2013-04-10 19:58:00,39.2,37.9,29.95,NNE,29,2.4,13.0,95,0.02,,,0.63,WeatherDisplay:10.37,2013-04-10 23:58:00,
2013-04-10 20:03:00,39.2,37.9,29.96,NNE,20,2.2,13.0,95,0.02,,,0.63,WeatherDisplay:10.37,2013-04-11 00:03:00,
2013-04-10 20:08:00,39.3,38.0,29.96,NNW,330,2.3,13.0,95,0.02,,,0.63,WeatherDisplay:10.37,2013-04-11 00:08:00,
2013-04-10 20:13:00,39.3,38.0,29.97,NNE,20,1.0,13.0,95,0.01,,,0.63,WeatherDisplay:10.37,2013-04-11 00:13:00,
2013-04-10 20:18:00,39.3,38.0,29.97,NNE,18,2.2,13.0,95,0.01,,,0.63,WeatherDisplay:10.37,2013-04-11 00:18:00,
2013-04-10 20:23:00,39.3,38.0,29.98,NNW,336,1.6,13.0,95,0.01,,,0.63,WeatherDisplay:10.37,2013-04-11 00:23:00,
2013-04-10 20:28:00,39.2,37.9,29.98,West,264,3.2,13.0,95,0.01,,,0.63,WeatherDisplay:10.37,2013-04-11 00:28:00,
2013-04-10 20:33:00,39.1,37.8,29.99,ENE,78,2.1,13.0,95,0.01,,,0.63,WeatherDisplay:10.37,2013-04-11 00:33:00,
2013-04-10 20:38:00,39.1,37.8,29.99,North,11,1.5,13.0,95,0.00,,,0.63,WeatherDisplay:10.37,2013-04-11 00:38:00,
2013-04-10 20:43:00,39.2,37.9,29.98,ENE,57,0.6,13.0,95,0.00,,,0.63,WeatherDisplay:10.37,2013-04-11 00:43:00,
2013-04-10 20:48:00,39.2,37.9,29.98,NNE,12,1.0,13.0,95,0.00,,,0.63,WeatherDisplay:10.37,2013-04-11 00:48:00,
2013-04-10 20:53:00,39.2,37.9,29.98,NE,36,2.3,13.0,95,0.00,,,0.63,WeatherDisplay:10.37,2013-04-11 00:53:00,
2013-04-10 20:58:00,39.2,37.9,29.97,NE,56,3.6,13.0,95,0.00,,,0.63,WeatherDisplay:10.37,2013-04-11 00:58:00,
2013-04-10 21:03:00,39.2,37.9,29.98,NE,53,1.3,13.0,95,0.00,,,0.63,WeatherDisplay:10.37,2013-04-11 01:03:00,
2013-04-10 21:08:00,39.2,37.9,29.99,East,96,0.8,13.0,95,0.00,,,0.63,WeatherDisplay:10.37,2013-04-11 01:08:00,
2013-04-10 21:13:00,39.3,38.0,30.00,ENE,57,1.1,13.0,95,0.00,,,0.63,WeatherDisplay:10.37,2013-04-11 01:13:00,
2013-04-10 21:18:00,39.3,38.0,30.01,NW,311,1.0,13.0,95,0.00,,,0.63,WeatherDisplay:10.37,2013-04-11 01:18:00,
2013-04-10 21:23:00,39.3,38.0,30.02,NNE,23,1.0,13.0,95,0.00,,,0.63,WeatherDisplay:10.37,2013-04-11 01:23:00,
2013-04-10 21:28:00,39.4,38.1,30.02,WNW,302,0.8,13.0,95,0.00,,,0.63,WeatherDisplay:10.37,2013-04-11 01:28:00,
2013-04-10 21:33:00,39.4,38.1,30.03,WNW,287,0.0,13.0,95,0.00,,,0.63,WeatherDisplay:10.37,2013-04-11 01:33:00,
2013-04-10 21:38:00,39.3,37.7,30.03,North,359,0.2,13.0,94,0.00,,,0.63,WeatherDisplay:10.37,2013-04-11 01:38:00,
2013-04-10 21:43:00,39.3,37.7,30.03,NNE,29,0.0,13.0,94,0.00,,,0.63,WeatherDisplay:10.37,2013-04-11 01:43:00,
2013-04-10 21:48:00,39.2,37.6,30.03,NNW,335,0.1,13.0,94,0.00,,,0.63,WeatherDisplay:10.37,2013-04-11 01:48:00,
2013-04-10 21:53:00,39.2,37.6,30.02,NNE,33,0.0,13.0,94,0.00,,,0.63,WeatherDisplay:10.37,2013-04-11 01:53:00,
2013-04-10 21:58:00,39.1,37.5,30.01,NNE,29,0.8,13.0,94,0.00,,,0.63,WeatherDisplay:10.37,2013-04-11 01:58:00,
2013-04-10 22:03:00,39.0,37.4,30.02,NNW,338,0.5,13.0,94,0.00,CLR,,0.63,WeatherDisplay:10.37,2013-04-11 02:03:00,
2013-04-10 22:08:00,39.0,37.4,30.02,NW,311,0.0,13.0,94,0.00,CLR,,0.63,WeatherDisplay:10.37,2013-04-11 02:08:00,
2013-04-10 22:13:00,38.9,37.3,30.01,East,82,0.0,13.0,94,0.00,CLR,,0.63,WeatherDisplay:10.37,2013-04-11 02:13:00,
2013-04-10 22:18:00,38.9,37.6,30.01,East,82,0.0,13.0,95,0.00,CLR,,0.63,WeatherDisplay:10.37,2013-04-11 02:18:00,
2013-04-10 22:23:00,38.8,37.5,30.02,NNW,338,0.1,13.0,95,0.00,CLR,,0.63,WeatherDisplay:10.37,2013-04-11 02:23:00,
2013-04-10 22:28:00,38.8,37.5,30.02,WNW,298,0.0,13.0,95,0.00,CLR,,0.63,WeatherDisplay:10.37,2013-04-11 02:28:00,
2013-04-10 22:33:00,38.9,37.6,30.02,WNW,290,0.0,13.0,95,0.00,CLR,,0.63,WeatherDisplay:10.37,2013-04-11 02:33:00,
2013-04-10 22:38:00,38.9,37.6,30.02,WNW,290,0.3,13.0,95,0.00,CLR,,0.63,WeatherDisplay:10.37,2013-04-11 02:38:00,
2013-04-10 22:43:00,38.8,37.5,30.02,NE,51,0.0,13.0,95,0.00,CLR,,0.63,WeatherDisplay:10.37,2013-04-11 02:43:00,
2013-04-10 22:48:00,38.8,37.5,30.02,NE,51,0.0,13.0,95,0.00,CLR,,0.63,WeatherDisplay:10.37,2013-04-11 02:48:00,
2013-04-10 22:53:00,38.8,37.5,30.02,NW,316,0.0,13.0,95,0.00,CLR,,0.63,WeatherDisplay:10.37,2013-04-11 02:53:00,
2013-04-10 22:58:00,38.7,37.4,30.02,ENE,75,0.0,13.0,95,0.00,CLR,,0.63,WeatherDisplay:10.37,2013-04-11 02:58:00,
2013-04-10 23:03:00,38.8,37.5,30.01,ENE,75,0.0,13.0,95,0.00,CLR,,0.63,WeatherDisplay:10.37,2013-04-11 03:03:00,
2013-04-10 23:08:00,38.8,37.5,30.01,ENE,75,0.0,13.0,95,0.00,CLR,,0.63,WeatherDisplay:10.37,2013-04-11 03:08:00,
2013-04-10 23:13:00,38.8,37.5,30.02,ENE,73,0.0,13.0,95,0.00,CLR,,0.63,WeatherDisplay:10.37,2013-04-11 03:13:00,
2013-04-10 23:18:00,38.8,37.5,30.02,ENE,73,0.0,13.0,95,0.00,CLR,,0.63,WeatherDisplay:10.37,2013-04-11 03:18:00,
2013-04-10 23:23:00,38.7,37.4,30.02,NE,44,0.0,13.0,95,0.00,CLR,,0.63,WeatherDisplay:10.37,2013-04-11 03:23:00,
2013-04-10 23:28:00,38.7,37.1,30.02,North,9,0.4,13.0,94,0.00,CLR,,0.63,WeatherDisplay:10.37,2013-04-11 03:28:00,
2013-04-10 23:33:00,38.7,37.1,30.02,North,8,0.0,13.0,94,0.00,CLR,,0.63,WeatherDisplay:10.37,2013-04-11 03:33:00,
2013-04-10 23:38:00,38.6,37.0,30.02,North,8,0.0,13.0,94,0.00,CLR,,0.63,WeatherDisplay:10.37,2013-04-11 03:38:00,
2013-04-10 23:43:00,38.5,36.9,30.02,North,9,0.0,13.0,94,0.00,CLR,,0.63,WeatherDisplay:10.37,2013-04-11 03:43:00,
2013-04-10 23:48:00,38.5,36.9,30.02,North,9,0.0,13.0,94,0.00,CLR,,0.63,WeatherDisplay:10.37,2013-04-11 03:48:00,
2013-04-10 23:53:00,38.5,36.9,30.02,North,8,0.0,0.0,94,0.00,RA,,0.63,WeatherDisplay:10.37,2013-04-11 03:53:00,
2013-04-10 23:58:00,38.5,36.9,30.01,North,8,0.0,1.2,94,0.00,RA,,0.63,WeatherDisplay:10.37,2013-04-11 03:58:00,